Hourly Data Report for September 04, 2017

All times are specified in Local Standard Time (LST). Add 1 hour to adjust for Daylight Saving Time where and when it is observed.

FREDERICTON
NEW BRUNSWICK

45°52'08.000" N
66°32'14.000" W
20.70 m
8101505
71700
YFC

Download Data

Hourly Data (September 2017)
Hourly Data Report for September 4, 2017
Temp Definition
°C
Dew Point Temp Definition
°C
Rel Hum Definition
%
Wind Dir Definition
10's deg

Wind Spd Definition
km/h
Visibility Definition
km
Stn Press Definition
kPa
Hmdx Definition


Wind Chill Definition


Weather Definition


TIME
00:00 Legend Double Dagger 12.5 11.9 96 7 18 4.8 100.54     Rain,Fog
01:00 Legend Double Dagger 12.6 12.1 97 6 15 8.1 100.31     Rain,Fog
02:00 Legend Double Dagger 12.8 12.2 96 7 17 4.8 100.10     Fog
03:00 Legend Double Dagger 13.2 12.7 97 LegendMM 4 3.2 99.95     Thunderstorms,Moderate Rain,Fog
04:00 Legend Double Dagger 13.4 13.1 98 4 9 11.3 99.80     Rain
05:00 Legend Double Dagger 14.0 13.7 98 10 8 16.1 99.69     LegendNANA
06:00 Legend Double Dagger 13.6 12.5 93 17 15 16.1 99.68     LegendNANA
07:00 Legend Double Dagger 13.0 12.5 97 19 13 2.0 99.75     Rain,Fog
08:00 Legend Double Dagger 14.1 13.5 96 24 13 4.8 99.79     Fog
09:00 Legend Double Dagger 14.2 12.7 91 25 22 16.1 99.94     LegendNANA
10:00 Legend Double Dagger 14.9 12.6 86 24 17 16.1 100.06     LegendNANA
11:00 Legend Double Dagger 16.4 12.7 78 26 21 16.1 100.15     LegendNANA
12:00 Legend Double Dagger 16.7 11.9 73 26 21 16.1 100.25     LegendNANA
13:00 Legend Double Dagger 18.9 12.3 65 26 18 16.1 100.28     LegendNANA
14:00 Legend Double Dagger 19.5 12.2 63 26 24 16.1 100.28     LegendNANA
15:00 Legend Double Dagger 19.4 12.5 64 25 15 16.1 100.30     LegendNANA
16:00 Legend Double Dagger 20.4 11.7 57 25 15 16.1 100.29     LegendNANA
17:00 Legend Double Dagger 20.6 11.4 55 24 15 16.1 100.35     LegendNANA
18:00 Legend Double Dagger 20.2 11.8 58 23 15 16.1 100.39     LegendNANA
19:00 Legend Double Dagger 16.9 12.3 74 17 13 16.1 100.43     LegendNANA
20:00 Legend Double Dagger 16.0 12.4 79 18 13 16.1 100.48     LegendNANA
21:00 Legend Double Dagger 16.2 12.8 80 19 17 16.1 100.49     LegendNANA
22:00 Legend Double Dagger 17.1 12.5 74 18 11 16.1 100.52     LegendNANA
23:00 Legend Double Dagger 16.4 12.3 77 18 9 16.1 100.49     LegendNANA

Notes on Data Quality.

Legend

  • E = Estimated
  • M = Missing
  • NA = Not Available
  • ‡ = Partner data that is not subject to review by the National Climate Archives
Date modified: